Location: Saalfelden+am+Steinernen+Meer
(47.4274°N, 12.8411°E)
Time: 02:20:50
(UTC+01:00)

Amateur Radio Satellites - All Passes

Search period start: 17 January 2018 01:50
Search period end: 18 January 2018 01:50
Location: Saalfelden+am+Steinernen+Meer, 47.4274°N, 12.8411°E

Satellite Date Start Highest point End Downlink Frequencies (MHz)
Time Altitude Azimuth
NANOSAT C BR1 17 Jan 01:57:39 01:59:54 14° 301° (WNW) 02:02:08 145.865
AO-7 17 Jan 01:59:47 02:04:19 15° 85° (E) 02:08:47 .
ISS 17 Jan 02:00:53 02:03:57 37° 2° (N) 02:07:03 437.550
nSIGHT-1 17 Jan 02:07:37 02:10:38 39° 7° (N) 02:13:40 .
CUBESAT XI-V 17 Jan 02:13:40 02:17:15 22° 62° (ENE) 02:20:49 437.345
50 SAT 17 Jan 02:15:26 02:16:55 13° 268° (W) 02:18:24 437.505
Oscar 19 17 Jan 02:18:52 02:24:01 66° 289° (WNW) 02:29:07 437.125/150
AO-91 17 Jan 02:20:43 02:24:39 45° 288° (WNW) 02:29:01 145.960
MOZHAYETS 4 17 Jan 02:22:17 02:26:55 86° 71° (ENE) 02:31:35
YUBILEINY 17 Jan 02:26:10 02:31:25 17° 308° (NW) 02:36:42 435.215
BUGSAT 1 17 Jan 02:28:27 02:31:59 26° 294° (WNW) 02:35:31 437.445
ITUPSAT 1 17 Jan 02:42:22 02:47:08 83° 74° (ENE) 02:51:57 437.325
Gurwin Techsat 1B 17 Jan 03:05:38 03:10:29 37° 295° (WNW) 03:15:19 435.225
ITAMSAT 1 17 Jan 03:14:49 03:19:09 26° 94° (E) 03:23:27 435.822/435.867
O/OREOS (USA 219) 17 Jan 03:22:46 03:25:38 16° 314° (NW) 03:28:30 437.305
BEESAT 17 Jan 03:25:54 03:30:21 39° 262° (W) 03:34:50 436.000
ISS 17 Jan 03:37:27 03:40:43 76° 21° (NNE) 03:44:00 437.550
DOVE 4 17 Jan 03:40:30 03:41:14 10° 88° (E) 03:41:57 437.250
nSIGHT-1 17 Jan 03:43:49 03:47:00 77° 207° (SSW) 03:50:10 .
CUBESAT XI-V 17 Jan 03:49:42 03:54:17 51° 261° (W) 03:58:52 437.345
AO-7 17 Jan 03:50:12 03:58:36 70° 106° (ESE) 04:06:55 .
Oscar 19 17 Jan 04:00:38 04:02:22 12° 308° (NW) 04:04:06 437.125/150
MOZHAYETS 4 17 Jan 04:03:01 04:04:42 12° 273° (W) 04:06:24
ITUPSAT 1 17 Jan 04:23:24 04:25:35 13° 272° (W) 04:27:45 437.325
KKS-1 17 Jan 04:26:14 04:30:37 70° 73° (ENE) 04:35:02 437.445
ITAMSAT 1 17 Jan 04:53:51 04:58:49 47° 292° (WNW) 05:03:47 435.822/435.867
STRAND 1 17 Jan 04:55:10 04:57:18 13° 53° (NE) 04:59:24 437.568
STARS 17 Jan 04:55:57 05:00:13 57° 71° (ENE) 05:04:30 437.465
M-CUBED/EXP-1 PRIME 17 Jan 05:06:13 05:09:41 58° 107° (ESE) 05:12:56 437.505
FO-29 17 Jan 05:08:01 05:09:41 11° 50° (NE) 05:11:20 435.910
ISS 17 Jan 05:14:19 05:16:55 22° 221° (SW) 05:19:31 437.550
DOVE 4 17 Jan 05:15:14 05:19:28 84° 283° (WNW) 05:23:53 437.250
nSIGHT-1 17 Jan 05:20:59 05:22:43 14° 224° (SW) 05:24:26 .
XW-2F 17 Jan 05:37:51 05:40:54 23° 94° (E) 05:43:55 145.980 - 146.000
XW-2D 17 Jan 05:43:09 05:46:30 29° 96° (E) 05:49:49 145.860 - 145.880
AO-7 17 Jan 05:43:35 05:50:49 34° 307° (NW) 05:58:01 .
KAITUO 1B 17 Jan 05:44:36 05:47:30 21° 93° (E) 05:50:21 145.475/437.950
CUTE-I 17 Jan 05:53:12 05:57:58 32° 96° (E) 06:02:42 437.470
SO-50 17 Jan 05:54:29 05:57:51 21° 113° (ESE) 06:01:16 436.795
XW-2B 17 Jan 06:00:22 06:04:01 44° 99° (E) 06:07:36 145.730 - 145.750
NUDT-PHONESAT 17 Jan 06:04:02 06:07:25 32° 97° (E) 06:10:43 437.300
KKS-1 17 Jan 06:05:24 06:07:39 14° 271° (W) 06:09:54 437.445
CUBEBUG 2 17 Jan 06:18:33 06:21:41 17° 89° (E) 06:24:49 437.445
LilacSat-2 17 Jan 06:21:59 06:25:48 89° 104° (ESE) 06:29:35 437.200
XW-2C 17 Jan 06:30:19 06:34:06 79° 285° (WNW) 06:37:51 145.795 - 145.815
STRAND 1 17 Jan 06:30:32 06:35:36 74° 73° (ENE) 06:40:42 437.568
STARS 17 Jan 06:34:12 06:36:55 16° 269° (W) 06:39:39 437.465
UWE-3 17 Jan 06:34:19 06:36:49 14° 88° (E) 06:39:19 435.000/436.395/437.385
M-CUBED/EXP-1 PRIME 17 Jan 06:42:04 06:43:36 12° 307° (NW) 06:45:06 437.505
FO-29 17 Jan 06:46:57 06:53:38 52° 69° (ENE) 06:59:34 435.910
HO-68 17 Jan 06:48:22 06:55:16 48° 99° (E) 07:02:06 435.675
AAUSAT CUBESAT 2 17 Jan 06:48:53 06:50:34 12° 88° (E) 06:52:15 437.432
SEEDS 17 Jan 06:51:17 06:54:56 29° 95° (E) 06:58:35 437.485
FALCONSAT 3 17 Jan 06:51:43 06:52:19 10° 168° (SSE) 06:52:55 435.103
CUTE 1.7 + AOD 2 17 Jan 06:54:16 06:58:24 51° 100° (E) 07:02:30 437.475
DOVE 4 17 Jan 06:55:37 06:56:31 11° 302° (WNW) 06:57:26 437.250
ZACube-1 17 Jan 07:08:18 07:11:12 16° 89° (E) 07:14:03 437.345
XW-2F 17 Jan 07:11:44 07:15:01 29° 292° (WNW) 07:18:16 145.980 - 146.000
XW-2D 17 Jan 07:17:30 07:20:33 23° 294° (WNW) 07:23:33 145.860 - 145.880
AO-73 17 Jan 07:17:52 07:20:58 18° 90° (E) 07:24:02 145.935
KAITUO 1B 17 Jan 07:18:13 07:21:31 31° 291° (WNW) 07:24:47 145.475/437.950
CUTE-I 17 Jan 07:33:09 07:38:04 40° 294° (WNW) 07:42:59 437.470
SO-50 17 Jan 07:33:32 07:37:56 56° 312° (NW) 07:42:26 436.795
XW-2B 17 Jan 07:35:24 07:37:51 17° 297° (WNW) 07:40:17 145.730 - 145.750
XW-2A 17 Jan 07:36:55 07:39:56 29° 97° (E) 07:42:54 145.665 - 145.685
NUDT-PHONESAT 17 Jan 07:38:15 07:41:03 21° 294° (WNW) 07:43:49 437.300
AO-7 17 Jan 07:39:14 07:41:03 11° 332° (NNW) 07:42:52 .
RS-15 17 Jan 07:39:20 07:49:25 32° 103° (ESE) 07:59:22 29.354- 29.394
TIGRISAT 17 Jan 07:49:40 07:52:45 19° 61° (ENE) 07:55:54 435.000
CUBEBUG 2 17 Jan 07:54:00 07:58:41 62° 287° (WNW) 08:03:22 437.445
Oscar 11 17 Jan 07:55:56 07:59:33 25° 94° (E) 08:03:08 .
UNISAT 6 17 Jan 08:02:57 08:06:37 26° 64° (ENE) 08:10:23 437.425
UWE-3 17 Jan 08:09:06 08:13:47 74° 286° (WNW) 08:18:25 435.000/436.395/437.385
STRAND 1 17 Jan 08:12:14 08:15:20 16° 271° (W) 08:18:27 437.568
AAUSAT CUBESAT 2 17 Jan 08:22:23 08:26:28 68° 286° (WNW) 08:30:32 437.432
SEEDS 17 Jan 08:26:59 08:30:34 28° 293° (WNW) 08:34:09 437.485
FALCONSAT 3 17 Jan 08:28:51 08:30:30 13° 184° (S) 08:32:09 435.103
CUTE 1.7 + AOD 2 17 Jan 08:30:59 08:33:51 18° 298° (WNW) 08:36:44 437.475
FO-29 17 Jan 08:32:42 08:38:52 33° 265° (W) 08:44:27 435.910
YUBILEINY 17 Jan 08:34:13 08:40:12 19° 55° (NE) 08:46:06 435.215
HO-68 17 Jan 08:36:20 08:42:53 41° 299° (WNW) 08:49:27 435.675
ZACube-1 17 Jan 08:43:20 08:47:53 62° 287° (WNW) 08:52:22 437.345
AO-73 17 Jan 08:53:03 08:57:33 56° 288° (WNW) 09:01:58 145.935
XW-2A 17 Jan 09:09:59 09:12:26 19° 294° (WNW) 09:14:51 145.665 - 145.685
SO-50 17 Jan 09:16:39 09:19:23 15° 335° (NNW) 09:22:08 436.795
AIST 2D 17 Jan 09:19:18 09:21:14 14° 64° (ENE) 09:23:10 435.315
TIGRISAT 17 Jan 09:24:43 09:29:01 55° 260° (W) 09:33:28 435.000
Oscar 11 17 Jan 09:31:48 09:35:45 35° 292° (WNW) 09:39:41 .
PRISM 17 Jan 09:38:36 09:42:36 58° 72° (ENE) 09:46:36 437.425
UNISAT 6 17 Jan 09:39:06 09:43:10 36° 263° (W) 09:47:22 437.425
DELFI C3 17 Jan 09:42:01 09:45:55 66° 101° (ESE) 09:49:49 145.870
NANOSAT C BR1 17 Jan 09:43:38 09:44:18 10° 56° (ENE) 09:44:59 145.865
Max Valier Satellite 17 Jan 09:43:43 09:47:19 45° 99° (E) 09:50:52 145.860
UWE-3 17 Jan 09:47:58 09:49:24 11° 304° (NW) 09:50:49 435.000/436.395/437.385
RS-15 17 Jan 09:48:12 10:00:35 87° 306° (NW) 10:12:46 29.354- 29.394
QB50P2 17 Jan 09:50:51 09:53:20 15° 60° (ENE) 09:55:50 145.880/145.840
BEESAT 3 17 Jan 09:51:52 09:53:48 13° 111° (ESE) 09:55:44 437.485
O/OREOS (USA 219) 17 Jan 10:08:54 10:13:00 34° 56° (NE) 10:17:05 437.305
EO-88 17 Jan 10:13:20 10:16:58 68° 101° (E) 10:20:34 145.990 - 145.960
EO-79 17 Jan 10:22:10 10:25:42 27° 66° (ENE) 10:29:16 145.935-145.965
DUCHIFAT 1 17 Jan 10:26:57 10:30:17 23° 64° (ENE) 10:33:38 145.980
HO-68 17 Jan 10:27:36 10:28:45 10° 321° (NW) 10:29:54 435.675
YUBILEINY 17 Jan 10:29:55 10:38:43 76° 79° (E) 10:47:25 435.215
AIST 2D 17 Jan 10:50:36 10:54:01 46° 261° (W) 10:57:27 435.315
PCSat 17 Jan 10:52:18 10:57:35 58° 118° (ESE) 11:02:55 145.827
POLYITAN 1 17 Jan 10:55:10 10:59:19 56° 72° (ENE) 11:03:29 437.675
ESTCUBE 1 17 Jan 11:04:36 11:08:33 29° 95° (E) 11:12:28 437.505/2401.250
Gurwin Techsat 1B 17 Jan 11:13:31 11:16:02 14° 53° (NE) 11:18:33 435.225
NANOSAT C BR1 17 Jan 11:15:03 11:19:15 80° 76° (ENE) 11:23:30 145.865
PRISM 17 Jan 11:16:02 11:18:14 14° 270° (W) 11:20:25 437.425
AO-7 17 Jan 11:16:43 11:18:28 11° 28° (NNE) 11:20:12 .
DELFI C3 17 Jan 11:18:17 11:20:09 13° 299° (WNW) 11:22:02 145.870
Max Valier Satellite 17 Jan 11:18:27 11:20:47 16° 297° (WNW) 11:23:06 145.860
QB50P2 17 Jan 11:24:25 11:28:37 65° 258° (WSW) 11:32:52 145.880/145.840
BEESAT 3 17 Jan 11:26:47 11:30:46 74° 309° (NW) 11:34:46 437.485
BUGSAT 1 17 Jan 11:45:22 11:49:04 35° 68° (ENE) 11:52:51 437.445
AO-91 17 Jan 11:46:27 11:48:49 18° 65° (ENE) 11:51:13 145.960
LO-87 17 Jan 11:46:52 11:50:30 70° 285° (WNW) 11:54:06 145.935 - 145.965
O/OREOS (USA 219) 17 Jan 11:48:26 11:52:20 30° 255° (WSW) 11:56:14 437.305
EO-88 17 Jan 11:48:53 11:50:04 11° 299° (WNW) 11:51:15 145.990 - 145.960
SPROUT 17 Jan 11:55:23 11:58:56 25° 94° (E) 12:02:28 437.525
EO-79 17 Jan 11:57:32 12:01:20 33° 263° (W) 12:05:12 145.935-145.965
Oscar 19 17 Jan 12:00:05 12:04:51 38° 66° (ENE) 12:09:39 437.125/150
DUCHIFAT 1 17 Jan 12:01:49 12:05:43 38° 262° (W) 12:09:42 145.980
RS-15 17 Jan 12:03:25 12:14:51 42° 336° (NNW) 12:25:58 29.354- 29.394
BEESAT 2 17 Jan 12:03:46 12:07:47 76° 124° (SE) 12:11:50 435.950
YUBILEINY 17 Jan 12:27:48 12:34:37 27° 281° (W) 12:41:24 435.215
POLYITAN 1 17 Jan 12:32:50 12:35:26 16° 270° (W) 12:38:03 437.675
PCSat 17 Jan 12:36:35 12:41:20 30° 318° (NW) 12:46:06 145.827
AO-85 17 Jan 12:40:36 12:44:02 28° 115° (ESE) 12:47:40 145.980
ESTCUBE 1 17 Jan 12:41:20 12:45:21 33° 293° (WNW) 12:49:20 437.505/2401.250
SO-50 17 Jan 12:41:36 12:44:20 15° 25° (NNE) 12:47:05 436.795
Gurwin Techsat 1B 17 Jan 12:49:48 12:55:05 75° 73° (ENE) 13:00:25 435.225
NANOSAT C BR1 17 Jan 12:54:23 12:55:31 11° 273° (W) 12:56:40 145.865
VELOX 1 17 Jan 12:59:48 13:04:10 61° 101° (ESE) 13:08:30 145.980
AO-7 17 Jan 13:01:29 13:08:41 34° 53° (NE) 13:15:54 .
BEESAT 3 17 Jan 13:06:35 13:08:58 15° 329° (NNW) 13:11:21 437.485
BUGSAT 1 17 Jan 13:21:16 13:24:31 23° 267° (W) 13:27:49 437.445
AO-91 17 Jan 13:22:10 13:25:09 29° 263° (W) 13:28:12 145.960
50 SAT 17 Jan 13:25:31 13:27:40 17° 94° (E) 13:29:49 437.505
UKube-1 17 Jan 13:28:20 13:31:01 16° 91° (E) 13:33:41 .
DX 1 17 Jan 13:30:05 13:33:47 26° 95° (E) 13:37:26 434.975-435.025
SPROUT 17 Jan 13:30:57 13:34:54 36° 291° (WNW) 13:38:49 437.525
Oscar 19 17 Jan 13:39:33 13:44:13 33° 264° (W) 13:48:54 437.125/150
BEESAT 2 17 Jan 13:43:00 13:45:58 19° 325° (NW) 13:48:56 435.950
MOZHAYETS 4 17 Jan 14:15:08 14:18:02 16° 89° (E) 14:20:54
AO-85 17 Jan 14:20:28 14:24:17 38° 317° (NW) 14:28:23 145.980
RS-15 17 Jan 14:20:32 14:31:20 35° 10° (N) 14:41:40 29.354- 29.394
M-CUBED/EXP-1 PRIME 17 Jan 14:21:03 14:23:57 18° 57° (ENE) 14:26:44 437.505
SO-50 17 Jan 14:21:15 14:25:50 52° 46° (NE) 14:30:28 436.795
PCSat 17 Jan 14:24:55 14:26:35 11° 343° (NNW) 14:28:15 145.827
Gurwin Techsat 1B 17 Jan 14:32:16 14:35:37 17° 271° (W) 14:38:59 435.225
ITAMSAT 1 17 Jan 14:35:40 14:40:42 55° 69° (ENE) 14:45:46 435.822/435.867
VELOX 1 17 Jan 14:37:19 14:40:09 17° 300° (WNW) 14:42:59 145.980
ITUPSAT 1 17 Jan 14:40:36 14:43:41 17° 90° (E) 14:46:44 437.325
DOVE 4 17 Jan 14:48:08 14:50:49 16° 62° (ENE) 14:53:28 437.250
AO-7 17 Jan 14:52:33 15:00:53 71° 254° (WSW) 15:09:17 .
50 SAT 17 Jan 14:56:46 14:59:26 26° 291° (WNW) 15:02:05 437.505
UKube-1 17 Jan 15:03:09 15:07:23 57° 289° (WNW) 15:11:35 .
DX 1 17 Jan 15:06:04 15:10:00 34° 293° (WNW) 15:13:55 434.975-435.025
BEESAT 17 Jan 15:22:14 15:26:45 40° 98° (E) 15:31:16 436.000
HO-68 17 Jan 15:38:02 15:40:51 13° 42° (NE) 15:43:41 435.675
CUTE-I 17 Jan 15:41:53 15:44:11 13° 53° (NE) 15:46:30 437.470
CUBESAT XI-V 17 Jan 15:42:59 15:47:06 31° 95° (E) 15:51:10 437.345
MOZHAYETS 4 17 Jan 15:51:00 15:55:37 63° 287° (WNW) 16:00:10
M-CUBED/EXP-1 PRIME 17 Jan 15:53:35 15:57:58 61° 253° (WSW) 16:02:06 437.505
SO-50 17 Jan 16:02:11 16:06:03 25° 245° (WSW) 16:09:57 436.795
AO-85 17 Jan 16:04:18 16:06:00 12° 341° (NNW) 16:07:44 145.980
ITAMSAT 1 17 Jan 16:16:32 16:20:31 22° 268° (W) 16:24:30 435.822/435.867
KKS-1 17 Jan 16:16:51 16:17:21 10° 87° (E) 16:17:51 437.445
ITUPSAT 1 17 Jan 16:17:10 16:21:58 66° 288° (WNW) 16:26:44 437.325
XW-2F 17 Jan 16:21:43 16:24:29 19° 65° (ENE) 16:27:15 145.980 - 146.000
DOVE 4 17 Jan 16:23:51 16:28:08 57° 259° (W) 16:32:18 437.250
XW-2D 17 Jan 16:27:16 16:30:23 24° 67° (ENE) 16:33:31 145.860 - 145.880
KAITUO 1B 17 Jan 16:27:42 16:30:14 17° 64° (ENE) 16:32:46 145.475/437.950
RS-15 17 Jan 16:34:54 16:46:44 61° 41° (NE) 16:57:53 29.354- 29.394
XW-2B 17 Jan 16:44:15 16:47:45 34° 70° (ENE) 16:51:15 145.730 - 145.750
NUDT-PHONESAT 17 Jan 16:45:50 16:48:55 25° 67° (ENE) 16:52:00 437.300
AO-7 17 Jan 16:50:37 16:55:10 15° 275° (W) 16:59:45 .
BEESAT 17 Jan 17:00:19 17:04:22 28° 296° (WNW) 17:08:24 436.000
LilacSat-2 17 Jan 17:06:16 17:10:06 68° 75° (ENE) 17:13:58 437.200
XW-2C 17 Jan 17:13:54 17:17:44 77° 74° (ENE) 17:21:35 145.795 - 145.815
CUTE-I 17 Jan 17:18:02 17:23:19 71° 72° (ENE) 17:28:37 437.470
CUBEBUG 2 17 Jan 17:19:47 17:22:57 20° 62° (ENE) 17:26:12 437.445
HO-68 17 Jan 17:20:09 17:26:58 49° 64° (ENE) 17:33:47 435.675
CUBESAT XI-V 17 Jan 17:20:19 17:24:28 33° 293° (WNW) 17:28:34 437.345
UWE-3 17 Jan 17:34:18 17:37:09 17° 60° (ENE) 17:40:02 435.000/436.395/437.385
AAUSAT CUBESAT 2 17 Jan 17:42:01 17:44:06 14° 60° (ENE) 17:46:11 437.432
SEEDS 17 Jan 17:45:39 17:49:22 31° 68° (ENE) 17:53:06 437.485
CUTE 1.7 + AOD 2 17 Jan 17:49:28 17:53:38 54° 72° (ENE) 17:57:48 437.475
KKS-1 17 Jan 17:50:05 17:54:33 88° 99° (E) 17:59:01 437.445
PCSat 17 Jan 17:54:02 17:58:17 23° 36° (NE) 18:02:30 145.827
XW-2F 17 Jan 17:54:45 17:58:20 38° 262° (W) 18:01:56 145.980 - 146.000
ITUPSAT 1 17 Jan 17:57:51 17:58:52 11° 307° (NW) 17:59:52 437.325
KAITUO 1B 17 Jan 18:00:18 18:03:53 42° 261° (W) 18:07:30 145.475/437.950
XW-2D 17 Jan 18:01:02 18:04:26 30° 264° (W) 18:07:51 145.860 - 145.880
BEESAT 3 17 Jan 18:03:17 18:06:40 26° 40° (NE) 18:09:59 437.485
ZACube-1 17 Jan 18:07:00 18:10:09 19° 62° (ENE) 18:13:20 437.345
XW-2A 17 Jan 18:11:09 18:13:34 18° 66° (ENE) 18:15:58 145.665 - 145.685
AO-73 17 Jan 18:16:11 18:19:29 21° 62° (ENE) 18:22:50 145.935
STARS 17 Jan 18:17:53 18:22:17 71° 102° (ESE) 18:26:42 437.465
XW-2B 17 Jan 18:19:05 18:22:00 21° 267° (W) 18:24:56 145.730 - 145.750
NUDT-PHONESAT 17 Jan 18:19:24 18:22:39 28° 265° (W) 18:25:54 437.300
NO-84 17 Jan 18:27:50 18:30:32 32° 139° (SE) 18:33:08 435.350 FM
STRAND 1 17 Jan 18:38:30 18:42:12 20° 91° (E) 18:45:53 437.568
BEESAT 2 17 Jan 18:41:11 18:44:19 21° 36° (NE) 18:47:25 435.950
LilacSat-2 17 Jan 18:43:41 18:44:48 11° 272° (W) 18:45:56 437.200
RS-15 17 Jan 18:47:58 18:59:00 51° 248° (WSW) 19:09:31 29.354- 29.394
Oscar 11 17 Jan 18:53:31 18:57:18 29° 67° (ENE) 19:01:05 .
CUBEBUG 2 17 Jan 18:54:58 18:59:11 51° 261° (W) 19:03:35 437.445
CUTE-I 17 Jan 19:00:23 19:03:54 18° 270° (W) 19:07:26 437.470
HO-68 17 Jan 19:08:16 19:14:50 39° 263° (W) 19:21:28 435.675
UWE-3 17 Jan 19:08:44 19:13:05 64° 259° (W) 19:17:36 435.000/436.395/437.385
AAUSAT CUBESAT 2 17 Jan 19:14:53 19:19:01 71° 258° (WSW) 19:23:10 437.432
SEEDS 17 Jan 19:21:24 19:25:03 28° 265° (W) 19:28:41 437.485
CUTE 1.7 + AOD 2 17 Jan 19:27:03 19:29:46 16° 270° (W) 19:32:32 437.475
AO-85 17 Jan 19:27:32 19:30:53 19° 31° (NNE) 19:34:22 145.980
KKS-1 17 Jan 19:28:28 19:30:27 13° 303° (WNW) 19:32:26 437.445
PCSat 17 Jan 19:36:56 19:42:24 88° 240° (WSW) 19:47:49 145.827
FO-29 17 Jan 19:38:14 19:42:42 27° 93° (E) 19:47:05 435.910
BEESAT 3 17 Jan 19:40:36 19:44:20 42° 240° (WSW) 19:47:59 437.485
ZACube-1 17 Jan 19:41:41 19:46:00 55° 261° (W) 19:50:28 437.345
XW-2A 17 Jan 19:42:56 19:46:02 32° 263° (W) 19:49:10 145.665 - 145.685
AO-73 17 Jan 19:51:04 19:55:21 50° 261° (W) 19:59:47 145.935
STARS 17 Jan 19:55:33 19:58:07 15° 301° (WNW) 20:00:40 437.465
NO-84 17 Jan 20:04:58 20:07:40 34° 337° (NNW) 20:10:18 435.350 FM
STRAND 1 17 Jan 20:16:43 20:21:48 62° 289° (WNW) 20:26:51 437.568
BEESAT 2 17 Jan 20:18:24 20:22:24 63° 236° (SW) 20:26:19 435.950
Max Valier Satellite 17 Jan 20:25:12 20:28:33 32° 69° (ENE) 20:31:55 145.860
Oscar 11 17 Jan 20:29:29 20:33:21 31° 264° (W) 20:37:16 .
DELFI C3 17 Jan 20:29:45 20:33:34 55° 73° (ENE) 20:37:25 145.870
EO-88 17 Jan 20:53:24 20:56:53 44° 72° (ENE) 21:00:25 145.990 - 145.960
AO-85 17 Jan 21:07:14 21:12:05 71° 51° (NE) 21:17:16 145.980
TIGRISAT 17 Jan 21:12:56 21:16:52 26° 93° (E) 21:20:47 435.000
PCSat 17 Jan 21:22:05 21:25:00 15° 256° (WSW) 21:27:54 145.827
FO-29 17 Jan 21:23:05 21:28:04 42° 293° (WNW) 21:32:53 435.910
UNISAT 6 17 Jan 21:26:50 21:31:13 37° 97° (E) 21:35:35 437.425
YUBILEINY 17 Jan 21:42:20 21:47:39 18° 74° (ENE) 21:52:57 435.215
NO-84 17 Jan 21:43:22 21:45:24 17° 358° (N) 21:47:25 435.350 FM
ISS 17 Jan 21:56:02 21:58:29 20° 139° (SE) 22:00:58 437.550
nSIGHT-1 17 Jan 21:58:28 22:01:12 27° 143° (SE) 22:03:58 .
STRAND 1 17 Jan 21:58:48 21:59:58 11° 308° (NW) 22:01:09 437.568
Max Valier Satellite 17 Jan 21:59:32 22:02:25 21° 267° (W) 22:05:19 145.860
DELFI C3 17 Jan 22:06:38 22:08:39 14° 270° (W) 22:10:40 145.870
ESTCUBE 1 17 Jan 22:06:48 22:11:02 40° 68° (ENE) 22:15:15 437.505/2401.250
LO-87 17 Jan 22:25:12 22:28:43 72° 75° (ENE) 22:32:19 145.935 - 145.965
VELOX 1 17 Jan 22:27:10 22:28:22 11° 56° (NE) 22:29:33 145.980
EO-88 17 Jan 22:28:39 22:30:46 15° 269° (W) 22:32:54 145.990 - 145.960
AO-85 17 Jan 22:48:30 22:52:09 21° 247° (WSW) 22:55:55 145.980
TIGRISAT 17 Jan 22:49:16 22:53:40 41° 291° (WNW) 22:58:03 435.000
PRISM 17 Jan 22:51:26 22:55:28 60° 102° (ESE) 22:59:29 437.425
SPROUT 17 Jan 22:51:28 22:55:05 28° 66° (ENE) 22:58:44 437.525
NANOSAT C BR1 17 Jan 22:58:48 22:59:25 10° 87° (E) 23:00:02 145.865
UNISAT 6 17 Jan 23:03:46 23:07:47 29° 295° (WNW) 23:11:47 437.425
QB50P2 17 Jan 23:06:51 23:09:37 17° 91° (E) 23:12:22 145.880/145.840
NO-84 17 Jan 23:20:44 23:23:14 27° 19° (NNE) 23:25:46 435.350 FM
ISS 17 Jan 23:31:23 23:34:39 81° 334° (NNW) 23:37:56 437.550
nSIGHT-1 17 Jan 23:34:04 23:37:13 62° 341° (NNW) 23:40:23 .
YUBILEINY 17 Jan 23:34:08 23:42:57 78° 95° (E) 23:51:45 435.215
EO-79 17 Jan 23:38:26 23:42:15 30° 96° (E) 23:46:02 145.935-145.965
DUCHIFAT 1 17 Jan 23:42:20 23:45:54 26° 94° (E) 23:49:28 145.980
ESTCUBE 1 17 Jan 23:44:15 23:47:57 25° 266° (W) 23:51:40 437.505/2401.250
AIST 2D 17 Jan 23:44:58 23:48:25 60° 285° (WNW) 23:51:50 435.315
VELOX 1 17 Jan 23:59:40 00:04:03 80° 74° (ENE) 00:08:27 145.980
POLYITAN 1 18 Jan 00:12:04 00:16:22 68° 102° (ESE) 00:20:38 437.675
O/OREOS (USA 219) 18 Jan 00:25:24 00:28:41 20° 102° (ESE) 00:31:58 437.305
UKube-1 18 Jan 00:25:30 00:28:46 22° 63° (ENE) 00:32:03 .
SPROUT 18 Jan 00:27:07 00:30:54 31° 264° (W) 00:34:43 437.525
PRISM 18 Jan 00:27:53 00:30:17 15° 299° (WNW) 00:32:40 437.425
DX 1 18 Jan 00:28:21 00:32:17 35° 67° (ENE) 00:36:14 434.975-435.025
NANOSAT C BR1 18 Jan 00:31:26 00:35:43 86° 289° (WNW) 00:39:59 145.865
QB50P2 18 Jan 00:41:31 00:45:43 54° 288° (WNW) 00:49:54 145.880/145.840
NO-84 18 Jan 00:57:42 01:00:30 51° 218° (SW) 01:03:25 435.350 FM
BEESAT 18 Jan 00:58:13 00:59:15 11° 53° (NE) 01:00:17 436.000
BUGSAT 1 18 Jan 00:58:29 01:02:29 38° 98° (E) 01:06:27 437.445
Gurwin Techsat 1B 18 Jan 01:03:20 01:07:31 23° 92° (E) 01:11:38 435.225
AO-91 18 Jan 01:06:34 01:10:24 33° 97° (E) 01:14:37 145.960
ISS 18 Jan 01:08:18 01:11:24 38° 357° (N) 01:14:29 437.550
nSIGHT-1 18 Jan 01:10:45 01:13:44 36° 1° (N) 01:16:43 .
EO-79 18 Jan 01:14:13 01:17:57 29° 294° (WNW) 01:21:39 145.935-145.965
DUCHIFAT 1 18 Jan 01:17:45 01:21:36 34° 292° (WNW) 01:25:27 145.980
MOZHAYETS 4 18 Jan 01:19:42 01:23:21 23° 63° (ENE) 01:27:01
50 SAT 18 Jan 01:23:28 01:26:30 58° 259° (WSW) 01:29:35 437.505
YUBILEINY 18 Jan 01:33:28 01:40:44 28° 299° (WNW) 01:48:03 435.215
VELOX 1 18 Jan 01:39:29 01:41:04 12° 272° (W) 01:42:39 145.980
